Weather History for KLEE - November, 2010

Change the Weather History Date:

Tuesday, November 30, 2010

  Actual Average Record
Temperature  
Mean Temperature 74 °F -  
Max Temperature 82 °F 72 °F 85 °F (1978)
Min Temperature 66 °F 51 °F 30 °F (1959)
Cooling Degree Days 9    
Growing Degree Days 24 (Base 50)    
Moisture  
Dew Point 65 °F    
Average Humidity 77    
Maximum Humidity 96    
Minimum Humidity 54    
Precipitation  
Precipitation 0.23 in - - ()
Sea Level Pressure  
Sea Level Pressure 30.06 in    
Wind  
Wind Speed 7 mph (South)    
Max Wind Speed 17 mph    
Max Gust Speed 33 mph    
Visibility 9 miles    
Events Rain    
Averages and records for this station are not official NWS values.
T = Trace of Precipitation, MM = Missing Value Source: NWS Daily Summary

Daily Weather History Graph

Daily Weather History Graph

Search for Another Location

Airport or City:

Trip Planner

Search our weather history database for the weather conditions in past years. The results will help you decide how hot, cold, wet, or windy it might be!

Date:

Astronomy

Nov. 30, 2010 Rise Set
Actual Time 7:02 AM EST 5:29 PM EST
Civil Twilight 6:36 AM EST 5:55 PM EST
Nautical Twilight 6:07 AM EST 6:24 PM EST
Astronomical Twilight 5:38 AM EST 6:52 PM EST
Moon 1:39 AM EST (11/30) 1:40 PM EST (11/30)
Length of Visible Light 11h 18m
Length of Day
10h 27m
Waning Crescent, 29% of the Moon is Illuminated
Nov 30
Waning Crescent
Dec 5
New
Dec 13
First Quarter
Dec 21
Full
Dec 27
Last Quarter

Hourly Weather History & Observations

Time (EST) Temp. Heat Index Dew Point Humidity Pressure Visibility Wind Dir Wind Speed Gust Speed Precip Events Conditions
12:53 AM 70.0 °F - 64.9 °F 84% 30.12 in 10.0 mi ESE 11.5 mph - N/A   Overcast
1:53 AM 69.1 °F - 64.9 °F 87% 30.10 in 10.0 mi East 4.6 mph - 0.00 in   Overcast
2:53 AM 69.1 °F - 64.9 °F 87% 30.10 in 10.0 mi East 3.5 mph - N/A   Overcast
4:53 AM 66.0 °F - 64.0 °F 93% 30.09 in 10.0 mi Calm Calm - N/A   Clear
5:53 AM 66.9 °F - 64.9 °F 93% 30.09 in 10.0 mi East 3.5 mph - N/A   Clear
6:10 AM 66.2 °F - 64.4 °F 94% 30.10 in 10.0 mi East 3.5 mph - N/A   Partly Cloudy
6:53 AM 66.0 °F - 64.9 °F 96% 30.11 in 10.0 mi Calm Calm - N/A   Clear
7:53 AM 68.0 °F - 66.0 °F 93% 30.12 in 10.0 mi SE 3.5 mph - N/A   Clear
8:53 AM 70.0 °F - 66.9 °F 90% 30.12 in 10.0 mi SSE 5.8 mph - N/A   Clear
9:53 AM 75.0 °F - 68.0 °F 79% 30.12 in 10.0 mi SSE 6.9 mph - N/A   Clear
10:53 AM 78.1 °F - 66.0 °F 66% 30.11 in 10.0 mi South 10.4 mph - N/A   Clear
11:53 AM 80.1 °F 82.1 °F 66.0 °F 62% 30.07 in 10.0 mi South 9.2 mph - N/A   Partly Cloudy
12:53 PM 82.0 °F 83.4 °F 64.0 °F 54% 30.04 in 10.0 mi South 10.4 mph - N/A   Scattered Clouds
1:53 PM 81.0 °F 82.5 °F 64.0 °F 56% 30.01 in 10.0 mi South 9.2 mph - N/A   Scattered Clouds
2:53 PM 80.1 °F 81.7 °F 64.0 °F 58% 29.99 in 10.0 mi South 10.4 mph - N/A   Mostly Cloudy
3:53 PM 82.0 °F 83.4 °F 64.0 °F 54% 29.99 in 10.0 mi South 9.2 mph 33.4 mph N/A   Mostly Cloudy
4:53 PM 79.0 °F - 64.9 °F 62% 29.99 in 10.0 mi South 4.6 mph - N/A   Scattered Clouds
5:53 PM 78.1 °F - 64.0 °F 62% 29.99 in 10.0 mi South 5.8 mph - N/A   Mostly Cloudy
6:53 PM 75.9 °F - 64.9 °F 69% 30.01 in 10.0 mi South 5.8 mph - N/A   Overcast
7:53 PM 75.0 °F - 64.9 °F 71% 30.01 in 10.0 mi South 9.2 mph - N/A   Mostly Cloudy
8:12 PM 73.4 °F - 66.2 °F 78% 30.03 in 2.0 mi SSW 17.3 mph 26.5 mph 0.16 in Rain Light Rain
8:19 PM 73.4 °F - 66.2 °F 78% 30.02 in 1.0 mi SSW 6.9 mph 26.5 mph 0.23 in Rain Heavy Rain
8:23 PM 73.4 °F - 66.2 °F 78% 30.02 in 3.0 mi SW 9.2 mph - 0.23 in Rain Light Rain
8:53 PM 73.9 °F - 66.9 °F 79% 30.04 in 10.0 mi SW 9.2 mph - 0.23 in   Scattered Clouds
9:53 PM 72.0 °F - 66.0 °F 81% 30.04 in 10.0 mi South 8.1 mph - N/A   Partly Cloudy
10:53 PM 71.1 °F - 64.9 °F 81% 30.04 in 10.0 mi South 9.2 mph - N/A   Clear
11:53 PM 70.0 °F - 64.9 °F 84% 30.04 in 10.0 mi South 5.8 mph - N/A   Partly Cloudy